Powrót do katalogu

STARLINK-35860

AktywnyŁącznośćVLEO
NORAD 66881·PAYLOAD·🇺🇸 United States

Wystrzelony Dec 4, 2025 z Vandenberg Space Force Base

Loading…

Następne Przeloty (najbliższe 24 godziny)

TLE

ŚwieżeSource: CelesTrak SupGP

Epoka: Sep 14, 2026, 21:28 UTC

1 66881C 25283D   26257.89493056  .00033787  00000+0  99817-3 0  2576
2 66881  53.1572 223.6264 0001491  94.2773   2.1470 15.34375629    16

Śledź STARLINK-35860 w czasie rzeczywistym z AllMySat

Download on the App Store